Powerscourt Airfield

Jump to: basic info | weather | comments

Related pages: nearby airports | nearby navaids | notams | map

Basic information (top)

Codes: EIPT
Location: lon 53.178301, lat -6.196495, elev 470 ft / 143 m msl
Status: small_airport

Weather (top)

Current conditions for Casement Air Base 12nm (22km) NW (rec'd 2015/03/28 01:00Z):

EIME 280100Z 21013KT 9999 FEW016 SCT030 BKN120 10/08 Q1009

Airport forecast for Dublin Airport 15nm (27km) N (rec'd 2015/03/27 00:24Z):

TAF EIDW 272300Z 2800/2824 13012KT 9999 FEW007 BKN015 
      TEMPO 2800/2803 3000 RADZ SCT005 BKN007 PROB30 
      TEMPO 2800/2803 BKN005 
      BECMG 2801/2803 21016G28KT 
      TEMPO 2803/2807 5000 RADZ BKN012 
      BECMG 2806/2808 23022G37KT 
      BECMG 2808/2810 26025G37KT SCT017 BKN028 
      TEMPO 2811/2813 26028G42KT

Latest comments (top)

Reopened: does anybody know about reopening and ppr? [read]

Operations suspended at this airport: Air Accident Investigation Unit Interim ... [read]

re: Powerscourt Airfield: Thank you very much - I've updated the position. [read]

Powerscourt Airfield: Position 53:10.787N 006:12.075W ... [read]

More... (top)

See also NOTAMs and nearby airports and navaids, or visit the Powerscourt Airfield page at the main OurAirports website..